Weather History for KAWO - April, 2013

Change the Weather History Date:

Saturday, April 6, 2013

  Actual Average Record
Temperature  
Mean Temperature 50 °F -  
Max Temperature 55 °F 73 °F 77 °F (2007)
Min Temperature 46 °F 38 °F 28 °F (1997)
Degree Days  
Heating Degree Days 14    
Moisture  
Dew Point 41 °F    
Average Humidity 74    
Maximum Humidity 82    
Minimum Humidity 62    
Precipitation  
Precipitation 0.01 in - - ()
Sea Level Pressure  
Sea Level Pressure 29.84 in    
Wind  
Wind Speed 15 mph (SSE)    
Max Wind Speed 26 mph    
Max Gust Speed 34 mph    
Visibility 10 miles    
Events      
Averages and records for this station are not official NWS values.
T = Trace of Precipitation, MM = Missing Value Source: NWS Daily Summary

Daily Weather History Graph

Daily Weather History Graph

Search for Another Location

Airport or City:

Trip Planner

Search our weather history database for the weather conditions in past years. The results will help you decide how hot, cold, wet, or windy it might be!

Date:

Astronomy

Apr. 06, 2013 Rise Set
Actual Time 6:35 AM PDT 7:46 PM PDT
Civil Twilight 6:04 AM PDT 8:18 PM PDT
Nautical Twilight 5:25 AM PDT 8:57 PM PDT
Astronomical Twilight 4:44 AM PDT 9:38 PM PDT
Moon 4:39 AM PDT (4/6) 4:07 PM PDT (4/6)
Length of Visible Light 14h 14m
Length of Day
13h 10m
Waning Crescent, 14% of the Moon is Illuminated
Apr 6
Waning Crescent
Apr 10
New
Apr 18
First Quarter
Apr 25
Full
May 2
Last Quarter

Hourly Weather History & Observations

Time (PDT) Temp. Windchill Dew Point Humidity Pressure Visibility Wind Dir Wind Speed Gust Speed Precip Events Conditions
12:15 AM 50.0 °F - 42.8 °F 76% 29.75 in 10.0 mi ESE 10.4 mph - N/A   Overcast
12:35 AM 50.0 °F - 42.8 °F 76% 29.74 in 10.0 mi ESE 12.7 mph - N/A   Overcast
12:55 AM 48.2 °F - 42.8 °F 82% 29.74 in 10.0 mi East 12.7 mph 17.3 mph 0.01 in   Overcast
1:15 AM 48.2 °F - 42.8 °F 82% 29.74 in 10.0 mi East 11.5 mph 17.3 mph N/A   Overcast
1:35 AM 48.2 °F - 42.8 °F 82% 29.72 in 10.0 mi East 13.8 mph 18.4 mph N/A   Overcast
1:55 AM 50.0 °F - 42.8 °F 76% 29.71 in 10.0 mi ESE 9.2 mph - N/A   Overcast
2:15 AM 50.0 °F - 42.8 °F 76% 29.71 in 10.0 mi SE 11.5 mph - N/A   Overcast
2:35 AM 51.8 °F - 42.8 °F 71% 29.71 in 10.0 mi SE 17.3 mph 26.5 mph N/A   Overcast
2:55 AM 51.8 °F - 44.6 °F 76% 29.72 in 10.0 mi SE 20.7 mph 26.5 mph N/A   Overcast
3:15 AM 50.0 °F - 44.6 °F 82% 29.72 in 10.0 mi SSE 26.5 mph 32.2 mph N/A   Mostly Cloudy
3:35 AM 50.0 °F - 44.6 °F 82% 29.73 in 10.0 mi SSE 19.6 mph 29.9 mph N/A   Scattered Clouds
3:55 AM 50.0 °F - 44.6 °F 82% 29.74 in 10.0 mi SSE 23.0 mph 28.8 mph N/A   Scattered Clouds
4:15 AM 50.0 °F - 42.8 °F 76% 29.76 in 10.0 mi SSE 24.2 mph - N/A   Mostly Cloudy
4:35 AM 50.0 °F - 42.8 °F 76% 29.77 in 10.0 mi SSE 24.2 mph 34.5 mph N/A   Mostly Cloudy
4:55 AM 48.2 °F - 42.8 °F 82% 29.78 in 10.0 mi SSE 21.9 mph 28.8 mph N/A   Mostly Cloudy
5:15 AM 48.2 °F - 42.8 °F 82% 29.78 in 10.0 mi SSE 20.7 mph 26.5 mph N/A   Overcast
5:35 AM 48.2 °F - 42.8 °F 82% 29.79 in 10.0 mi South 18.4 mph 24.2 mph N/A   Overcast
5:55 AM 48.2 °F - 42.8 °F 82% 29.79 in 10.0 mi SSE 12.7 mph - N/A   Mostly Cloudy
6:15 AM 48.2 °F - 42.8 °F 82% 29.80 in 10.0 mi South 17.3 mph 21.9 mph N/A   Overcast
6:35 AM 48.2 °F - 39.2 °F 71% 29.81 in 10.0 mi South 12.7 mph - N/A   Overcast
6:55 AM 46.4 °F 41.9 °F 41.0 °F 81% 29.81 in 10.0 mi SSE 9.2 mph - N/A   Mostly Cloudy
7:15 AM 46.4 °F 40.7 °F 41.0 °F 81% 29.81 in 10.0 mi SSE 12.7 mph - N/A   Overcast
7:35 AM 46.4 °F 40.4 °F 41.0 °F 81% 29.82 in 10.0 mi South 13.8 mph - N/A   Overcast
7:55 AM 46.4 °F 41.5 °F 41.0 °F 81% 29.83 in 10.0 mi SSE 10.4 mph - N/A   Overcast
8:15 AM 46.4 °F 41.9 °F 41.0 °F 81% 29.84 in 10.0 mi SSE 9.2 mph - N/A   Overcast
8:35 AM 46.4 °F 40.7 °F 41.0 °F 81% 29.84 in 10.0 mi SSE 12.7 mph - N/A   Overcast
8:55 AM 46.4 °F 40.4 °F 41.0 °F 81% 29.85 in 10.0 mi SSE 13.8 mph - N/A   Overcast
9:15 AM 46.4 °F 39.8 °F 41.0 °F 81% 29.85 in 10.0 mi SSE 16.1 mph 20.7 mph N/A   Overcast
9:35 AM 48.2 °F - 41.0 °F 76% 29.85 in 10.0 mi SSE 16.1 mph - N/A   Overcast
9:55 AM 48.2 °F - 41.0 °F 76% 29.86 in 10.0 mi SSE 15.0 mph 21.9 mph N/A   Overcast
10:15 AM 48.2 °F - 41.0 °F 76% 29.88 in 10.0 mi SSE 16.1 mph 20.7 mph N/A   Overcast
10:35 AM 48.2 °F - 39.2 °F 71% 29.88 in 10.0 mi SSE 16.1 mph 19.6 mph N/A   Overcast
10:55 AM 48.2 °F - 41.0 °F 76% 29.89 in 10.0 mi South 18.4 mph 21.9 mph N/A   Overcast
11:15 AM 48.2 °F - 39.2 °F 71% 29.89 in 10.0 mi SSE 16.1 mph - N/A   Overcast
11:35 AM 50.0 °F - 39.2 °F 66% 29.90 in 10.0 mi SSW 8.1 mph - N/A   Overcast
11:55 AM 50.0 °F - 41.0 °F 71% 29.90 in 10.0 mi South 8.1 mph - N/A   Overcast
12:15 PM 50.0 °F - 41.0 °F 71% 29.90 in 10.0 mi SW 6.9 mph - N/A   Overcast
12:35 PM 51.8 °F - 41.0 °F 67% 29.90 in 10.0 mi South 17.3 mph 25.3 mph N/A   Overcast
12:55 PM 51.8 °F - 39.2 °F 62% 29.90 in 10.0 mi South 20.7 mph 24.2 mph N/A   Overcast
1:15 PM 53.6 °F - 42.8 °F 67% 29.90 in 10.0 mi SSE 19.6 mph 25.3 mph N/A   Mostly Cloudy
1:35 PM 53.6 °F - 42.8 °F 67% 29.91 in 10.0 mi South 17.3 mph 20.7 mph N/A   Overcast
1:55 PM 51.8 °F - 41.0 °F 67% 29.92 in 10.0 mi South 15.0 mph - N/A   Overcast
2:15 PM 51.8 °F - 39.2 °F 62% 29.92 in 10.0 mi South 11.5 mph - N/A   Overcast
2:35 PM 51.8 °F - 41.0 °F 67% 29.92 in 10.0 mi South 10.4 mph - N/A   Overcast
2:55 PM 55.4 °F - 42.8 °F 63% 29.92 in 10.0 mi SSE 16.1 mph 20.7 mph N/A   Overcast
3:15 PM 51.8 °F - 39.2 °F 62% 29.92 in 10.0 mi South 15.0 mph 19.6 mph N/A   Overcast
3:35 PM 53.6 °F - 41.0 °F 62% 29.92 in 10.0 mi South 17.3 mph - N/A   Overcast
3:55 PM 51.8 °F - 41.0 °F 67% 29.92 in 10.0 mi South 13.8 mph - N/A   Overcast
4:15 PM 51.8 °F - 42.8 °F 71% 29.91 in 10.0 mi SE 16.1 mph 19.6 mph N/A   Overcast
4:35 PM 50.0 °F - 42.8 °F 76% 29.91 in 10.0 mi SE 15.0 mph 19.6 mph N/A   Overcast
4:55 PM 48.2 °F - 42.8 °F 82% 29.90 in 10.0 mi SE 17.3 mph 21.9 mph N/A   Overcast
5:15 PM 50.0 °F - 42.8 °F 76% 29.89 in 10.0 mi SE 21.9 mph 26.5 mph N/A   Mostly Cloudy
5:35 PM 50.0 °F - 42.8 °F 76% 29.90 in 10.0 mi SSE 20.7 mph 24.2 mph N/A   Overcast
5:55 PM 50.0 °F - 39.2 °F 66% 29.90 in 10.0 mi SSE 16.1 mph 26.5 mph N/A   Mostly Cloudy
6:15 PM 48.2 °F - 39.2 °F 71% 29.90 in 10.0 mi SSE 18.4 mph 23.0 mph N/A   Mostly Cloudy
6:35 PM 48.2 °F - 39.2 °F 71% 29.89 in 10.0 mi SSE 18.4 mph 27.6 mph N/A   Overcast
6:55 PM 48.2 °F - 39.2 °F 71% 29.89 in 10.0 mi SSE 16.1 mph 20.7 mph N/A   Overcast
7:15 PM 48.2 °F - 39.2 °F 71% 29.89 in 10.0 mi SSE 17.3 mph 23.0 mph N/A   Overcast
7:35 PM 48.2 °F - 37.4 °F 66% 29.89 in 10.0 mi SSE 12.7 mph 24.2 mph N/A   Overcast
7:55 PM 48.2 °F - 39.2 °F 71% 29.89 in 10.0 mi SE 17.3 mph 21.9 mph N/A   Overcast
8:15 PM 48.2 °F - 39.2 °F 71% 29.89 in 10.0 mi SE 17.3 mph 21.9 mph N/A   Overcast
8:35 PM 46.4 °F 40.4 °F 39.2 °F 76% 29.89 in 10.0 mi SE 13.8 mph - N/A   Overcast
8:55 PM 46.4 °F 40.4 °F 37.4 °F 71% 29.88 in 10.0 mi SE 13.8 mph - N/A   Overcast
9:15 PM 46.4 °F 41.9 °F 37.4 °F 71% 29.88 in 10.0 mi SE 9.2 mph - N/A   Overcast
9:35 PM 46.4 °F 41.5 °F 37.4 °F 71% 29.87 in 10.0 mi SSE 10.4 mph - N/A   Overcast
9:55 PM 46.4 °F 41.5 °F 37.4 °F 71% 29.87 in 10.0 mi ESE 10.4 mph - N/A   Overcast
10:15 PM 46.4 °F 41.9 °F 37.4 °F 71% 29.86 in 10.0 mi SE 9.2 mph - N/A   Overcast
10:35 PM 46.4 °F 41.9 °F 37.4 °F 71% 29.85 in 10.0 mi SE 9.2 mph - N/A   Overcast
10:55 PM 46.4 °F 42.9 °F 37.4 °F 71% 29.84 in 10.0 mi SE 6.9 mph - N/A   Overcast
11:15 PM 46.4 °F 43.5 °F 37.4 °F 71% 29.84 in 10.0 mi South 5.8 mph - N/A   Overcast
11:35 PM 46.4 °F 44.3 °F 37.4 °F 71% 29.82 in 10.0 mi SE 4.6 mph - N/A   Overcast
11:55 PM 46.4 °F 42.9 °F 37.4 °F 71% 29.81 in 10.0 mi SE 6.9 mph - N/A   Overcast